| time (UTC) | temp F | wind direction | speed MPH | gust MPH | rain 1hr in | rain 24hr in | rain mn in | humidity % | barometer mb |
| 20260507223031 | 53 | 37 | 1.0 | 4.0 | 0.00 | 0.02 | 0.00 | 85 | 1013.8 |
| 20260507221527 | 54 | 42 | 2.0 | 5.0 | 0.00 | 0.02 | 0.00 | 85 | 1013.7 |
| 20260507220038 | 54 | 20 | 2.0 | 3.0 | 0.00 | 0.02 | 0.00 | 84 | 1013.6 |
| 20260507214533 | 54 | 40 | 1.0 | 4.0 | 0.00 | 0.02 | 0.02 | 84 | 1013.6 |
| 20260507213022 | 55 | 38 | 1.0 | 4.0 | 0.00 | 0.02 | 0.02 | 83 | 1013.4 |
| 20260507211523 | 55 | 42 | 2.0 | 4.0 | 0.00 | 0.02 | 0.02 | 83 | 1013.3 |
| 20260507210022 | 56 | 30 | 1.0 | 3.0 | 0.00 | 0.02 | 0.02 | 82 | 1013.3 |
| 20260507204521 | 56 | 21 | 1.0 | 2.0 | 0.00 | 0.02 | 0.02 | 81 | 1013.2 |
| 20260507203027 | 57 | 51 | 2.0 | 4.0 | 0.00 | 0.02 | 0.02 | 80 | 1013.1 |
| 20260507201522 | 58 | 41 | 0.0 | 3.0 | 0.00 | 0.02 | 0.02 | 79 | 1013.1 |
| 20260507200020 | 59 | 5 | 1.0 | 3.0 | 0.00 | 0.02 | 0.02 | 77 | 1012.8 |
| 20260507194519 | 60 | 40 | 2.0 | 3.0 | 0.00 | 0.02 | 0.02 | 75 | 1012.6 |
| 20260507193019 | 61 | 40 | 1.0 | 3.0 | 0.00 | 0.02 | 0.02 | 73 | 1012.4 |
| 20260507191518 | 62 | 42 | 2.0 | 3.0 | 0.00 | 0.02 | 0.02 | 70 | 1012.2 |
| 20260507190018 | 63 | 203 | 0.0 | 1.0 | 0.00 | 0.02 | 0.02 | 65 | 1011.9 |
| 20260507184517 | 64 | 203 | 0.0 | 1.0 | 0.00 | 0.08 | 0.02 | 63 | 1011.9 |
| 20260507183018 | 65 | 203 | 0.0 | 0.0 | 0.00 | 0.08 | 0.02 | 62 | 1011.7 |
| 20260507181515 | 66 | 203 | 1.0 | 3.0 | 0.00 | 0.08 | 0.02 | 60 | 1011.7 |
| 20260507180016 | 67 | 202 | 2.0 | 6.0 | 0.00 | 0.08 | 0.02 | 57 | 1011.5 |
| 20260507174522 | 67 | 165 | 2.0 | 6.0 | 0.00 | 0.23 | 0.02 | 56 | 1011.3 |
| 20260507173018 | 68 | 204 | 4.0 | 7.0 | 0.00 | 0.23 | 0.02 | 56 | 1011.2 |
| 20260507171517 | 68 | 189 | 4.0 | 7.0 | 0.00 | 0.23 | 0.02 | 54 | 1011.1 |
| 20260507170015 | 69 | 190 | 5.0 | 8.0 | 0.00 | 0.23 | 0.02 | 54 | 1011.1 |
| 20260507164512 | 69 | 194 | 3.0 | 10.0 | 0.00 | 0.23 | 0.02 | 54 | 1011.0 |
| 20260507163012 | 69 | 189 | 2.0 | 8.0 | 0.00 | 0.23 | 0.02 | 51 | 1011.0 |
| 20260507161511 | 69 | 201 | 1.0 | 7.0 | 0.00 | 0.23 | 0.02 | 52 | 1010.9 |
| 20260507160015 | 69 | 193 | 6.0 | 11.0 | 0.00 | 0.23 | 0.02 | 51 | 1010.9 |
| 20260507154511 | 69 | 193 | 4.0 | 9.0 | 0.00 | 0.23 | 0.02 | 51 | 1011.0 |
| 20260507153010 | 69 | 211 | 3.0 | 7.0 | 0.00 | 0.23 | 0.02 | 49 | 1011.0 |
| 20260507151509 | 71 | 197 | 3.0 | 5.0 | 0.00 | 0.23 | 0.02 | 48 | 1011.1 |
| 20260507150007 | 69 | 255 | 3.0 | 9.0 | 0.00 | 0.23 | 0.02 | 51 | 1011.1 |
| 20260507144510 | 69 | 159 | 3.0 | 6.0 | 0.00 | 0.28 | 0.02 | 52 | 1011.1 |
| 20260507143005 | 68 | 157 | 2.0 | 9.0 | 0.00 | 0.28 | 0.02 | 54 | 1011.2 |
| 20260507141504 | 69 | 192 | 2.0 | 8.0 | 0.00 | 0.28 | 0.02 | 52 | 1011.3 |
| 20260507140001 | 69 | 239 | 4.0 | 10.0 | 0.00 | 0.28 | 0.02 | 55 | 1011.5 |
| 20260507134600 | 68 | 269 | 1.0 | 6.0 | 0.00 | 0.50 | 0.02 | 54 | 1011.5 |
| 20260507133106 | 68 | 226 | 1.0 | 12.0 | 0.00 | 0.50 | 0.02 | 53 | 1011.8 |
| 20260507131603 | 68 | 186 | 6.0 | 14.0 | 0.00 | 0.50 | 0.02 | 55 | 1011.8 |
| 20260507130108 | 67 | 207 | 2.0 | 6.0 | 0.00 | 0.50 | 0.02 | 58 | 1012.0 |
| 20260507124556 | 67 | 185 | 4.0 | 10.0 | 0.00 | 0.67 | 0.02 | 57 | 1012.1 |
| 20260507123053 | 66 | 140 | 8.0 | 14.0 | 0.00 | 0.67 | 0.02 | 59 | 1012.1 |
| 20260507121604 | 67 | 174 | 4.0 | 9.0 | 0.00 | 0.67 | 0.02 | 59 | 1012.3 |
| 20260507120052 | 66 | 219 | 2.0 | 9.0 | 0.00 | 0.67 | 0.02 | 59 | 1012.3 |
| 20260507114604 | 66 | 159 | 5.0 | 9.0 | 0.00 | 0.67 | 0.02 | 59 | 1012.4 |
| 20260507113050 | 65 | 212 | 4.0 | 11.0 | 0.00 | 0.67 | 0.02 | 59 | 1012.5 |
| 20260507111546 | 65 | 121 | 2.0 | 9.0 | 0.00 | 0.67 | 0.02 | 61 | 1012.6 |
| 20260507110046 | 65 | 239 | 3.0 | 8.0 | 0.00 | 0.67 | 0.02 | 65 | 1012.7 |
| 20260507104544 | 65 | 127 | 4.0 | 8.0 | 0.00 | 0.67 | 0.02 | 63 | 1012.9 |
| 20260507103044 | 64 | 161 | 4.0 | 8.0 | 0.00 | 0.67 | 0.02 | 64 | 1013.0 |
| 20260507101540 | 63 | 249 | 3.0 | 7.0 | 0.00 | 0.67 | 0.02 | 65 | 1013.2 |
| 20260507100041 | 63 | 207 | 3.0 | 7.0 | 0.00 | 0.67 | 0.02 | 66 | 1013.2 |
| 20260507094539 | 63 | 211 | 3.0 | 6.0 | 0.00 | 0.68 | 0.02 | 66 | 1013.2 |
| 20260507093033 | 62 | 323 | 2.0 | 7.0 | 0.00 | 0.68 | 0.02 | 66 | 1013.2 |
| 20260507091531 | 62 | 144 | 2.0 | 6.0 | 0.00 | 0.68 | 0.02 | 66 | 1013.2 |
| 20260507090030 | 60 | 165 | 2.0 | 9.0 | 0.00 | 0.68 | 0.02 | 71 | 1013.1 |
| 20260507084526 | 60 | 161 | 1.0 | 6.0 | 0.00 | 0.68 | 0.02 | 73 | 1013.2 |
| 20260507083023 | 59 | 84 | 3.0 | 9.0 | 0.00 | 0.68 | 0.02 | 74 | 1013.0 |
| 20260507081535 | 59 | 159 | 3.0 | 7.0 | 0.00 | 0.68 | 0.02 | 77 | 1013.0 |
| 20260507080018 | 59 | 185 | 1.0 | 3.0 | 0.00 | 0.68 | 0.02 | 79 | 1012.9 |
| 20260507074524 | 57 | 40 | 2.0 | 4.0 | 0.00 | 0.68 | 0.02 | 81 | 1012.8 |
| 20260507073012 | 56 | 342 | 2.0 | 9.0 | 0.00 | 0.68 | 0.02 | 81 | 1012.8 |
| 20260507071508 | 55 | 5 | 4.0 | 9.0 | 0.00 | 0.68 | 0.02 | 83 | 1012.8 |
| 20260507070010 | 55 | 11 | 2.0 | 6.0 | 0.00 | 0.68 | 0.02 | 84 | 1012.8 |
| 20260507064507 | 54 | 339 | 4.0 | 9.0 | 0.00 | 0.69 | 0.02 | 84 | 1012.6 |
| 20260507063101 | 54 | 340 | 4.0 | 11.0 | 0.00 | 0.69 | 0.02 | 85 | 1012.5 |
| 20260507061607 | 54 | 13 | 3.0 | 6.0 | 0.00 | 0.69 | 0.02 | 87 | 1012.4 |
| 20260507060055 | 53 | 5 | 2.0 | 5.0 | 0.00 | 0.69 | 0.02 | 88 | 1012.3 |
| 20260507054633 | 52 | 336 | 3.0 | 8.0 | 0.00 | 0.69 | 0.02 | 89 | 1012.3 |
| 20260507053052 | 52 | 338 | 2.0 | 4.0 | 0.00 | 0.69 | 0.02 | 90 | 1012.1 |
| 20260507051546 | 51 | 33 | 2.0 | 4.0 | 0.00 | 0.69 | 0.02 | 90 | 1011.9 |
| 20260507050046 | 51 | 47 | 2.0 | 4.0 | 0.00 | 0.69 | 0.02 | 90 | 1011.7 |
| 20260507044549 | 51 | 350 | 1.0 | 5.0 | 0.00 | 0.69 | 0.02 | 90 | 1011.6 |
| 20260507043042 | 51 | 46 | 2.0 | 5.0 | 0.00 | 0.69 | 0.02 | 90 | 1011.3 |
| 20260507041541 | 51 | 13 | 1.0 | 6.0 | 0.00 | 0.69 | 0.02 | 90 | 1011.2 |
| 20260507040038 | 51 | 32 | 1.0 | 4.0 | 0.01 | 0.69 | 0.02 | 90 | 1011.2 |
| 20260507034535 | 51 | 26 | 3.0 | 5.0 | 0.01 | 0.71 | 0.02 | 90 | 1011.2 |
| 20260507033034 | 51 | 42 | 4.0 | 7.0 | 0.01 | 0.71 | 0.02 | 90 | 1011.1 |
| 20260507031533 | 51 | 31 | 1.0 | 6.0 | 0.01 | 0.71 | 0.02 | 90 | 1011.1 |
| 20260507030041 | 51 | 38 | 3.0 | 7.0 | 0.00 | 0.70 | 0.01 | 90 | 1011.1 |
| 20260507024536 | 52 | 35 | 1.0 | 6.0 | 0.00 | 0.76 | 0.01 | 90 | 1011.0 |
| 20260507023030 | 52 | 9 | 4.0 | 8.0 | 0.00 | 0.76 | 0.01 | 90 | 1011.0 |
| 20260507021529 | 52 | 41 | 4.0 | 10.0 | 0.00 | 0.76 | 0.01 | 90 | 1011.2 |
| 20260507020028 | 52 | 29 | 1.0 | 5.0 | 0.00 | 0.76 | 0.01 | 91 | 1011.2 |
| 20260507014538 | 52 | 42 | 3.0 | 8.0 | 0.00 | 0.76 | 0.01 | 91 | 1011.0 |
| 20260507013025 | 52 | 22 | 1.0 | 3.0 | 0.00 | 0.76 | 0.01 | 91 | 1011.0 |
| 20260507011528 | 52 | 54 | 4.0 | 9.0 | 0.00 | 0.76 | 0.01 | 90 | 1010.8 |
| 20260507010023 | 52 | 32 | 0.0 | 3.0 | 0.01 | 0.76 | 0.01 | 90 | 1010.9 |
| 20260507004524 | 52 | 327 | 2.0 | 3.0 | 0.01 | 0.76 | 0.01 | 90 | 1010.9 |
| 20260507003021 | 52 | 355 | 2.0 | 8.0 | 0.01 | 0.76 | 0.01 | 90 | 1010.7 |
| 20260507001525 | 52 | 19 | 7.0 | 12.0 | 0.01 | 0.76 | 0.01 | 90 | 1010.7 |
| 20260507000026 | 52 | 35 | 5.0 | 10.0 | 0.00 | 0.76 | 0.00 | 90 | 1010.7 |
| 20260506234516 | 53 | 331 | 4.0 | 10.0 | 0.00 | 0.76 | 0.00 | 89 | 1010.7 |
| 20260506233015 | 53 | 30 | 2.0 | 6.0 | 0.00 | 0.76 | 0.00 | 88 | 1010.7 |
| 20260506231514 | 53 | 355 | 3.0 | 6.0 | 0.00 | 0.76 | 0.00 | 88 | 1010.7 |
| 20260506230012 | 53 | 57 | 3.0 | 11.0 | 0.00 | 0.76 | 0.00 | 88 | 1010.5 |
| 20260506224512 | 53 | 29 | 6.0 | 14.0 | 0.00 | 0.76 | 0.00 | 88 | 1010.5 |